Year,Month,Day,Hour,Minute,Value (Times are PST for temperature in C)
2007,05,26,10,49,12.30
2007,05,26,10,50,12.30
2007,05,26,10,51,12.30
2007,05,26,10,52,12.30
2007,05,26,10,53,12.30
2007,05,26,10,54,12.40
2007,05,26,10,55,12.40
2007,05,26,10,56,12.40
2007,05,26,10,57,12.50
2007,05,26,10,58,12.50
2007,05,26,10,59,12.50
2007,05,26,11,00,12.50
2007,05,26,11,01,12.60
2007,05,26,11,02,12.60
2007,05,26,11,03,12.60
2007,05,26,11,04,12.60
2007,05,26,11,05,12.70
2007,05,26,11,06,12.70
2007,05,26,11,07,12.70
2007,05,26,11,08,12.70
2007,05,26,11,09,12.80
2007,05,26,11,10,12.80
2007,05,26,11,11,12.80
2007,05,26,11,12,12.80
2007,05,26,11,13,12.90
2007,05,26,11,14,12.90
2007,05,26,11,15,12.90
2007,05,26,11,16,13.00
2007,05,26,11,17,13.00
2007,05,26,11,18,13.00
2007,05,26,11,19,13.10
2007,05,26,11,20,13.10
2007,05,26,11,21,13.10
2007,05,26,11,22,13.20
2007,05,26,11,23,13.20
2007,05,26,11,24,13.20
2007,05,26,11,25,13.30
2007,05,26,11,26,13.30
2007,05,26,11,27,13.40
2007,05,26,11,28,13.40
2007,05,26,11,29,13.50
2007,05,26,11,30,13.50
2007,05,26,11,31,13.60
2007,05,26,11,32,13.60
2007,05,26,11,33,13.70
2007,05,26,11,34,13.80
2007,05,26,11,35,13.80
2007,05,26,11,36,13.90
2007,05,26,11,37,13.90
2007,05,26,11,38,13.90
2007,05,26,11,39,14.00
2007,05,26,11,40,14.00
2007,05,26,11,41,14.10
2007,05,26,11,42,14.10
2007,05,26,11,43,14.10
2007,05,26,11,44,14.10
2007,05,26,11,45,14.20
2007,05,26,11,46,14.20
2007,05,26,11,47,14.20
2007,05,26,11,48,14.20
2007,05,26,11,49,14.20
2007,05,26,11,50,14.20
2007,05,26,11,51,14.20
2007,05,26,11,52,14.20
2007,05,26,11,53,14.20
2007,05,26,11,54,14.20
2007,05,26,11,55,14.20
2007,05,26,11,56,14.20
2007,05,26,11,57,14.20
2007,05,26,11,58,14.20
2007,05,26,11,59,14.20
2007,05,26,12,00,14.20
2007,05,26,12,01,14.20
2007,05,26,12,02,14.20
2007,05,26,12,03,14.20
2007,05,26,12,04,14.20
2007,05,26,12,05,14.20
2007,05,26,12,06,14.20
2007,05,26,12,07,14.10
2007,05,26,12,08,14.10
2007,05,26,12,09,14.10
2007,05,26,12,10,14.10
2007,05,26,12,11,14.00
2007,05,26,12,12,14.00
2007,05,26,12,13,14.00
2007,05,26,12,14,14.00
2007,05,26,12,15,14.00
2007,05,26,12,16,14.00
2007,05,26,12,17,14.00
2007,05,26,12,18,14.00
2007,05,26,12,19,14.00
2007,05,26,12,20,14.00
2007,05,26,12,21,14.00
2007,05,26,12,22,14.00
2007,05,26,12,23,14.00
2007,05,26,12,24,14.00
2007,05,26,12,25,14.00
2007,05,26,12,26,14.10
2007,05,26,12,27,14.10
2007,05,26,12,28,14.10
2007,05,26,12,29,14.10
2007,05,26,12,30,14.10
2007,05,26,12,31,14.10
2007,05,26,12,32,14.10
2007,05,26,12,33,14.10
2007,05,26,12,34,14.20
2007,05,26,12,35,14.20
2007,05,26,12,36,14.20
2007,05,26,12,37,14.20
2007,05,26,12,38,14.20
2007,05,26,12,39,14.20
2007,05,26,12,40,14.20
2007,05,26,12,41,14.20
2007,05,26,12,42,14.30
2007,05,26,12,43,14.30
2007,05,26,12,44,14.40
2007,05,26,12,45,14.50
2007,05,26,12,46,14.50
2007,05,26,12,47,14.60
2007,05,26,12,48,14.70
2007,05,26,12,49,14.70
2007,05,26,12,50,14.80
2007,05,26,12,51,14.80
2007,05,26,12,52,14.80
2007,05,26,12,53,14.90
2007,05,26,12,54,15.00
2007,05,26,12,55,15.00
2007,05,26,12,56,15.00
2007,05,26,12,57,15.00
2007,05,26,12,58,15.10
2007,05,26,12,59,15.10
2007,05,26,13,00,15.10
2007,05,26,13,01,15.00
2007,05,26,13,02,15.00
2007,05,26,13,03,15.20
2007,05,26,13,04,15.20
2007,05,26,13,05,15.20
2007,05,26,13,06,15.20
2007,05,26,13,07,15.20
2007,05,26,13,08,15.20
2007,05,26,13,09,15.30
2007,05,26,13,10,15.40
2007,05,26,13,11,15.40
2007,05,26,13,12,15.40
2007,05,26,13,13,15.40
2007,05,26,13,14,15.30
2007,05,26,13,15,15.30
2007,05,26,13,16,15.40
2007,05,26,13,17,15.40
2007,05,26,13,18,15.50
2007,05,26,13,19,15.60
2007,05,26,13,20,15.60
2007,05,26,13,21,15.70
2007,05,26,13,22,15.80
2007,05,26,13,23,15.80
2007,05,26,13,24,15.80
2007,05,26,13,25,15.80
2007,05,26,13,26,15.90
2007,05,26,13,27,16.00
2007,05,26,13,28,16.10
2007,05,26,13,29,16.20
2007,05,26,13,30,16.40
2007,05,26,13,31,16.70
2007,05,26,13,32,16.80
2007,05,26,13,33,16.90
2007,05,26,13,34,16.90
2007,05,26,13,35,16.80
2007,05,26,13,36,16.80
2007,05,26,13,37,16.70
2007,05,26,13,38,16.70
2007,05,26,13,39,16.60
2007,05,26,13,40,16.60
2007,05,26,13,41,16.50
2007,05,26,13,42,16.50
2007,05,26,13,43,16.40
2007,05,26,13,44,16.40
2007,05,26,13,45,16.40
2007,05,26,13,46,16.40
2007,05,26,13,47,16.50
2007,05,26,13,48,16.50
2007,05,26,13,49,16.60
2007,05,26,13,50,16.80
2007,05,26,13,51,16.90
2007,05,26,13,52,17.00
2007,05,26,13,53,17.10
2007,05,26,13,54,17.10
2007,05,26,13,55,17.20
2007,05,26,13,56,17.20
2007,05,26,13,57,17.20
2007,05,26,13,58,17.20
2007,05,26,13,59,17.30
2007,05,26,14,00,17.30
2007,05,26,14,01,17.40
2007,05,26,14,02,17.40
2007,05,26,14,03,17.50
2007,05,26,14,04,17.60
2007,05,26,14,05,17.70
2007,05,26,14,06,17.80
2007,05,26,14,07,17.80
2007,05,26,14,08,17.70
2007,05,26,14,09,17.80
2007,05,26,14,10,17.80
2007,05,26,14,11,17.80
2007,05,26,14,12,17.70
2007,05,26,14,13,17.70
2007,05,26,14,14,17.70
2007,05,26,14,15,17.70
2007,05,26,14,16,17.80
2007,05,26,14,17,17.90
2007,05,26,14,18,18.00
2007,05,26,14,19,18.00
2007,05,26,14,20,18.00
2007,05,26,14,21,17.90
2007,05,26,14,22,17.90
2007,05,26,14,23,17.90
2007,05,26,14,24,17.80
2007,05,26,14,25,17.80
2007,05,26,14,26,17.80
2007,05,26,14,27,17.70
2007,05,26,14,28,17.60
2007,05,26,14,29,17.60
2007,05,26,14,30,17.50
2007,05,26,14,31,17.50
2007,05,26,14,32,17.40
2007,05,26,14,33,17.40
2007,05,26,14,34,17.40
2007,05,26,14,35,17.40
2007,05,26,14,36,17.40
2007,05,26,14,37,17.40
2007,05,26,14,38,17.40
2007,05,26,14,39,17.40
2007,05,26,14,40,17.40
2007,05,26,14,41,17.40
2007,05,26,14,42,17.50
2007,05,26,14,43,17.60
2007,05,26,14,44,17.60
2007,05,26,14,45,17.60
2007,05,26,14,46,17.70
2007,05,26,14,47,17.70
2007,05,26,14,48,17.70
2007,05,26,14,49,17.60
2007,05,26,14,50,17.60
2007,05,26,14,51,17.50
2007,05,26,14,52,17.40
2007,05,26,14,53,17.40
2007,05,26,14,54,17.40
2007,05,26,14,55,17.30
2007,05,26,14,56,17.30
2007,05,26,14,57,17.30
2007,05,26,14,58,17.30
2007,05,26,14,59,17.30
2007,05,26,15,00,17.30
2007,05,26,15,01,17.40
2007,05,26,15,02,17.40
2007,05,26,15,03,17.50
2007,05,26,15,04,17.60
2007,05,26,15,05,17.60
2007,05,26,15,06,17.70
2007,05,26,15,07,17.80
2007,05,26,15,08,18.00
2007,05,26,15,09,18.10
2007,05,26,15,10,18.10
2007,05,26,15,11,18.10
2007,05,26,15,12,18.10
2007,05,26,15,13,18.10
2007,05,26,15,14,18.20
2007,05,26,15,15,18.20
2007,05,26,15,16,18.30
2007,05,26,15,17,18.40
2007,05,26,15,18,18.50
2007,05,26,15,19,18.50
2007,05,26,15,20,18.60
2007,05,26,15,21,18.70
2007,05,26,15,22,18.70
2007,05,26,15,23,18.70
2007,05,26,15,24,18.70
2007,05,26,15,25,18.70
2007,05,26,15,26,18.60
2007,05,26,15,27,18.60
2007,05,26,15,28,18.60
2007,05,26,15,29,18.70
2007,05,26,15,30,18.70
2007,05,26,15,31,18.80
2007,05,26,15,32,18.80
2007,05,26,15,33,18.70
2007,05,26,15,34,18.50
2007,05,26,15,35,18.50
2007,05,26,15,36,18.50
2007,05,26,15,37,18.50
2007,05,26,15,38,18.60
2007,05,26,15,39,18.60
2007,05,26,15,40,18.70
2007,05,26,15,41,18.70
2007,05,26,15,42,18.80
2007,05,26,15,43,18.80
2007,05,26,15,44,18.90
2007,05,26,15,45,18.90
2007,05,26,15,46,18.90
2007,05,26,15,47,18.80
2007,05,26,15,48,18.80
2007,05,26,15,49,18.70
2007,05,26,15,50,18.70
2007,05,26,15,51,18.70
2007,05,26,15,52,18.60
2007,05,26,15,53,18.60
2007,05,26,15,54,18.60
2007,05,26,15,55,18.70
2007,05,26,15,56,18.70
2007,05,26,15,57,18.60
2007,05,26,15,58,18.50
2007,05,26,15,59,18.50
2007,05,26,16,00,18.50
2007,05,26,16,01,18.60
2007,05,26,16,02,18.70
2007,05,26,16,03,18.70
2007,05,26,16,04,18.60
2007,05,26,16,05,18.50
2007,05,26,16,06,18.50
2007,05,26,16,07,18.40
2007,05,26,16,08,18.40
2007,05,26,16,09,18.40
2007,05,26,16,10,18.40
2007,05,26,16,11,18.40
2007,05,26,16,12,18.40
2007,05,26,16,13,18.50
2007,05,26,16,14,18.50
2007,05,26,16,15,18.50
2007,05,26,16,16,18.40
2007,05,26,16,17,18.30
2007,05,26,16,18,18.20
2007,05,26,16,19,18.20
2007,05,26,16,20,18.20
2007,05,26,16,21,18.20
2007,05,26,16,22,18.10
2007,05,26,16,23,18.00
2007,05,26,16,24,17.90
2007,05,26,16,25,17.90
2007,05,26,16,26,17.90
2007,05,26,16,27,17.90
2007,05,26,16,28,17.90
2007,05,26,16,29,17.80
2007,05,26,16,30,17.80
2007,05,26,16,31,17.70
2007,05,26,16,32,17.80
2007,05,26,16,33,17.80
2007,05,26,16,34,17.70
2007,05,26,16,35,17.60
2007,05,26,16,36,17.50
2007,05,26,16,37,17.50
2007,05,26,16,38,17.50
2007,05,26,16,39,17.40
2007,05,26,16,40,17.40
2007,05,26,16,41,17.40
2007,05,26,16,42,17.40
2007,05,26,16,43,17.40
2007,05,26,16,44,17.30
2007,05,26,16,45,17.30
2007,05,26,16,46,17.20
2007,05,26,16,47,17.20
2007,05,26,16,48,17.20
2007,05,26,16,49,17.30
2007,05,26,16,50,17.30
2007,05,26,16,51,17.40
2007,05,26,16,52,17.40
2007,05,26,16,53,17.50
2007,05,26,16,54,17.50
2007,05,26,16,55,17.50
2007,05,26,16,56,17.50
2007,05,26,16,57,17.50
2007,05,26,16,58,17.60
2007,05,26,16,59,17.60
2007,05,26,17,00,17.60
2007,05,26,17,01,17.60
2007,05,26,17,02,17.60
2007,05,26,17,03,17.60
2007,05,26,17,04,17.70
2007,05,26,17,05,17.60
2007,05,26,17,06,17.60
2007,05,26,17,07,17.50
2007,05,26,17,08,17.50
2007,05,26,17,09,17.50
2007,05,26,17,10,17.50
2007,05,26,17,11,17.50
2007,05,26,17,12,17.40
2007,05,26,17,13,17.40
2007,05,26,17,14,17.40
2007,05,26,17,15,17.40
2007,05,26,17,16,17.40
2007,05,26,17,17,17.40
2007,05,26,17,18,17.30
2007,05,26,17,19,17.30
2007,05,26,17,20,17.30
2007,05,26,17,21,17.30
2007,05,26,17,22,17.30
2007,05,26,17,23,17.30
2007,05,26,17,24,17.30
2007,05,26,17,25,17.30
2007,05,26,17,26,17.30
2007,05,26,17,27,17.20
2007,05,26,17,28,17.20
2007,05,26,17,29,17.10
2007,05,26,17,30,17.10
2007,05,26,17,31,17.10
2007,05,26,17,32,17.10
2007,05,26,17,33,17.20
2007,05,26,17,34,17.20
2007,05,26,17,35,17.30
2007,05,26,17,36,17.30
2007,05,26,17,37,17.40
2007,05,26,17,38,17.40
2007,05,26,17,39,17.40
2007,05,26,17,40,17.40
2007,05,26,17,41,17.40
2007,05,26,17,42,17.40
2007,05,26,17,43,17.40
2007,05,26,17,44,17.40
2007,05,26,17,45,17.50
2007,05,26,17,46,17.60
2007,05,26,17,47,17.60
2007,05,26,17,48,17.60
2007,05,26,17,49,17.60
2007,05,26,17,50,17.60
2007,05,26,17,51,17.60
2007,05,26,17,52,17.60
2007,05,26,17,53,17.60
2007,05,26,17,54,17.60
2007,05,26,17,55,17.70
2007,05,26,17,56,17.70
2007,05,26,17,57,17.70
2007,05,26,17,58,17.60
2007,05,26,17,59,17.50
2007,05,26,18,00,17.40
2007,05,26,18,01,17.40
2007,05,26,18,02,17.40
2007,05,26,18,03,17.40
2007,05,26,18,04,17.40
2007,05,26,18,05,17.40
2007,05,26,18,06,17.30
2007,05,26,18,07,17.30
2007,05,26,18,08,17.20
2007,05,26,18,09,17.20
2007,05,26,18,10,17.20
2007,05,26,18,11,17.20
2007,05,26,18,12,17.20
2007,05,26,18,13,17.20
2007,05,26,18,14,17.30
2007,05,26,18,15,17.20
2007,05,26,18,16,17.20
2007,05,26,18,17,17.10
2007,05,26,18,18,17.10
2007,05,26,18,19,17.10
2007,05,26,18,20,17.10
2007,05,26,18,21,17.10
2007,05,26,18,22,17.10
2007,05,26,18,23,17.10
2007,05,26,18,24,17.20
2007,05,26,18,25,17.20
2007,05,26,18,26,17.20
2007,05,26,18,27,17.20
2007,05,26,18,28,17.30
2007,05,26,18,29,17.30
2007,05,26,18,30,17.30
2007,05,26,18,31,17.30
2007,05,26,18,32,17.30
2007,05,26,18,33,17.30
2007,05,26,18,34,17.30
2007,05,26,18,35,17.30
2007,05,26,18,36,17.30
2007,05,26,18,37,17.20
2007,05,26,18,38,17.20
2007,05,26,18,39,17.20
2007,05,26,18,40,17.30
2007,05,26,18,41,17.30
2007,05,26,18,42,17.40
2007,05,26,18,43,17.40
2007,05,26,18,44,17.50
2007,05,26,18,45,17.50
2007,05,26,18,46,17.40
2007,05,26,18,47,17.40
2007,05,26,18,48,17.30
2007,05,26,18,49,17.30
2007,05,26,18,50,17.40
2007,05,26,18,51,17.40
2007,05,26,18,52,17.50
2007,05,26,18,53,17.50
2007,05,26,18,54,17.60
2007,05,26,18,55,17.60
2007,05,26,18,56,17.70
2007,05,26,18,57,17.70
2007,05,26,18,58,17.70
2007,05,26,18,59,17.60
2007,05,26,19,00,17.60
2007,05,26,19,01,17.60
2007,05,26,19,02,17.50
2007,05,26,19,03,17.50
2007,05,26,19,04,17.40
2007,05,26,19,05,17.40
2007,05,26,19,06,17.30
2007,05,26,19,07,17.30
2007,05,26,19,08,17.30
2007,05,26,19,09,17.40
2007,05,26,19,10,17.40
2007,05,26,19,11,17.40
2007,05,26,19,12,17.40
2007,05,26,19,13,17.40
2007,05,26,19,14,17.40
2007,05,26,19,15,17.40
2007,05,26,19,16,17.50
2007,05,26,19,17,17.40
2007,05,26,19,18,17.40
2007,05,26,19,19,17.40
2007,05,26,19,20,17.40
2007,05,26,19,21,17.40
2007,05,26,19,22,17.40
2007,05,26,19,23,17.40
2007,05,26,19,24,17.30
2007,05,26,19,25,17.30
2007,05,26,19,26,17.30
2007,05,26,19,27,17.20
2007,05,26,19,28,17.10
2007,05,26,19,29,17.00
2007,05,26,19,30,17.00
2007,05,26,19,31,16.90
2007,05,26,19,32,16.80
2007,05,26,19,33,16.80
2007,05,26,19,34,16.70
2007,05,26,19,35,16.60
2007,05,26,19,36,16.60
2007,05,26,19,37,16.50
2007,05,26,19,38,16.50
2007,05,26,19,39,16.40
2007,05,26,19,40,16.40
2007,05,26,19,41,16.30
2007,05,26,19,42,16.30
2007,05,26,19,43,16.30
2007,05,26,19,44,16.20
2007,05,26,19,45,16.20
2007,05,26,19,46,16.10
2007,05,26,19,47,16.10
2007,05,26,19,48,16.00
2007,05,26,19,49,16.00
2007,05,26,19,50,16.00
2007,05,26,19,51,16.00
2007,05,26,19,52,15.90
2007,05,26,19,53,15.90
2007,05,26,19,54,15.90
2007,05,26,19,55,15.90
2007,05,26,19,56,15.80
2007,05,26,19,57,15.80
2007,05,26,19,58,15.80
2007,05,26,19,59,15.70
2007,05,26,20,00,15.70
2007,05,26,20,01,15.60
2007,05,26,20,02,15.60
2007,05,26,20,03,15.60
2007,05,26,20,04,15.60
2007,05,26,20,05,15.50
2007,05,26,20,06,15.50
2007,05,26,20,07,15.50
2007,05,26,20,08,15.50
2007,05,26,20,09,15.40
2007,05,26,20,10,15.40
2007,05,26,20,11,15.40
2007,05,26,20,12,15.40
2007,05,26,20,13,15.40
2007,05,26,20,14,15.40
2007,05,26,20,15,15.30
2007,05,26,20,16,15.30
2007,05,26,20,17,15.30
2007,05,26,20,18,15.30
2007,05,26,20,19,15.30
2007,05,26,20,20,15.30
2007,05,26,20,21,15.30
2007,05,26,20,22,15.30
2007,05,26,20,23,15.30
2007,05,26,20,24,15.30
2007,05,26,20,25,15.20
2007,05,26,20,26,15.20
2007,05,26,20,27,15.20
2007,05,26,20,28,15.20
2007,05,26,20,29,15.20
2007,05,26,20,30,15.10
2007,05,26,20,31,15.10
2007,05,26,20,32,15.10
2007,05,26,20,33,15.00
2007,05,26,20,34,15.00
2007,05,26,20,35,15.00
2007,05,26,20,36,15.00
2007,05,26,20,37,15.00
2007,05,26,20,38,15.00
2007,05,26,20,39,15.00
2007,05,26,20,40,15.00
2007,05,26,20,41,15.00
2007,05,26,20,42,14.90
2007,05,26,20,43,14.80
2007,05,26,20,44,14.80
2007,05,26,20,45,14.80
2007,05,26,20,46,14.70
2007,05,26,20,47,14.70
2007,05,26,20,48,14.70
2007,05,26,20,49,14.60
2007,05,26,20,50,14.60
2007,05,26,20,51,14.50
2007,05,26,20,52,14.50
2007,05,26,20,53,14.40
2007,05,26,20,54,14.40
2007,05,26,20,55,14.40
2007,05,26,20,56,14.30
2007,05,26,20,57,14.30
2007,05,26,20,58,14.30
2007,05,26,20,59,14.20
2007,05,26,21,00,14.20
2007,05,26,21,01,14.20
2007,05,26,21,02,14.10
2007,05,26,21,03,14.10
2007,05,26,21,04,14.10
2007,05,26,21,05,14.00
2007,05,26,21,06,14.00
2007,05,26,21,07,14.00
2007,05,26,21,08,13.90
2007,05,26,21,09,13.90
2007,05,26,21,10,13.90
2007,05,26,21,11,13.80
2007,05,26,21,12,13.80
2007,05,26,21,13,13.80
2007,05,26,21,14,13.70
2007,05,26,21,15,13.70
2007,05,26,21,16,13.70
2007,05,26,21,17,13.60
2007,05,26,21,18,13.60
2007,05,26,21,19,13.50
2007,05,26,21,20,13.50
2007,05,26,21,21,13.40
2007,05,26,21,22,13.40
2007,05,26,21,23,13.40
2007,05,26,21,24,13.30
2007,05,26,21,25,13.30
2007,05,26,21,26,13.20
2007,05,26,21,27,13.20
2007,05,26,21,28,13.20
2007,05,26,21,29,13.10
2007,05,26,21,30,13.10
2007,05,26,21,31,13.10
2007,05,26,21,32,13.00
2007,05,26,21,33,13.00
2007,05,26,21,34,13.00
2007,05,26,21,35,12.90
2007,05,26,21,36,12.90
2007,05,26,21,37,12.90
2007,05,26,21,38,12.90
2007,05,26,21,39,12.90
2007,05,26,21,40,12.90
2007,05,26,21,41,12.80
2007,05,26,21,42,12.80
2007,05,26,21,43,12.80
2007,05,26,21,44,12.80
2007,05,26,21,45,12.80
2007,05,26,21,46,12.70
2007,05,26,21,47,12.70
2007,05,26,21,48,12.70
2007,05,26,21,49,12.60
2007,05,26,21,50,12.60
2007,05,26,21,51,12.50
2007,05,26,21,52,12.50
2007,05,26,21,53,12.40
2007,05,26,21,54,12.40
2007,05,26,21,55,12.30
2007,05,26,21,56,12.30
2007,05,26,21,57,12.30
2007,05,26,21,58,12.20
2007,05,26,21,59,12.20
2007,05,26,22,00,12.20
2007,05,26,22,01,12.10
2007,05,26,22,02,12.10
2007,05,26,22,03,12.10
2007,05,26,22,04,12.00
2007,05,26,22,05,12.00
2007,05,26,22,06,12.00
2007,05,26,22,07,11.90
2007,05,26,22,08,11.90
2007,05,26,22,09,11.90
2007,05,26,22,10,11.90
2007,05,26,22,11,11.80
2007,05,26,22,12,11.80
2007,05,26,22,13,11.80
2007,05,26,22,14,11.80
2007,05,26,22,15,11.70
2007,05,26,22,16,11.70
2007,05,26,22,17,11.70
2007,05,26,22,18,11.70
2007,05,26,22,19,11.60
2007,05,26,22,20,11.60
2007,05,26,22,21,11.60
2007,05,26,22,22,11.60
2007,05,26,22,23,11.50
2007,05,26,22,24,11.50
2007,05,26,22,25,11.50
2007,05,26,22,26,11.50
2007,05,26,22,27,11.40
2007,05,26,22,28,11.40
2007,05,26,22,29,11.40
2007,05,26,22,30,11.40
2007,05,26,22,31,11.30
2007,05,26,22,32,11.30
2007,05,26,22,33,11.30
2007,05,26,22,34,11.20
2007,05,26,22,35,11.20
2007,05,26,22,36,11.20
2007,05,26,22,37,11.20
2007,05,26,22,38,11.10
2007,05,26,22,39,11.10
2007,05,26,22,40,11.10
2007,05,26,22,41,11.10
2007,05,26,22,42,11.00
2007,05,26,22,43,11.00
2007,05,26,22,44,11.00
2007,05,26,22,45,10.90
2007,05,26,22,46,10.90
2007,05,26,22,47,10.90
2007,05,26,22,48,10.80
2007,05,26,22,49,10.80
2007,05,26,22,50,10.80
2007,05,26,22,51,10.80
2007,05,26,22,52,10.80
2007,05,26,22,53,10.80
2007,05,26,22,54,10.70
2007,05,26,22,55,10.70
2007,05,26,22,56,10.70
2007,05,26,22,57,10.70
2007,05,26,22,58,10.70
2007,05,26,22,59,10.70
2007,05,26,23,00,10.70
2007,05,26,23,01,10.70
2007,05,26,23,02,10.70
2007,05,26,23,03,10.70
2007,05,26,23,04,10.70
2007,05,26,23,05,10.70
2007,05,26,23,06,10.70
2007,05,26,23,07,10.70
2007,05,26,23,08,10.70
2007,05,26,23,09,10.70
2007,05,26,23,10,10.70
2007,05,26,23,11,10.70
2007,05,26,23,12,10.70
2007,05,26,23,13,10.70
2007,05,26,23,14,10.60
2007,05,26,23,15,10.60
2007,05,26,23,16,10.60
2007,05,26,23,17,10.60
2007,05,26,23,18,10.60
2007,05,26,23,19,10.60
2007,05,26,23,20,10.50
2007,05,26,23,21,10.50
2007,05,26,23,22,10.50
2007,05,26,23,23,10.40
2007,05,26,23,24,10.40
2007,05,26,23,25,10.40
2007,05,26,23,26,10.40
2007,05,26,23,27,10.40
2007,05,26,23,28,10.30
2007,05,26,23,29,10.30
2007,05,26,23,30,10.30
2007,05,26,23,31,10.30
2007,05,26,23,32,10.30
2007,05,26,23,33,10.30
2007,05,26,23,34,10.30
2007,05,26,23,35,10.30
2007,05,26,23,36,10.30
2007,05,26,23,37,10.20
2007,05,26,23,38,10.20
2007,05,26,23,39,10.20
2007,05,26,23,40,10.20
2007,05,26,23,41,10.20
2007,05,26,23,42,10.20
2007,05,26,23,43,10.10
2007,05,26,23,44,10.10
2007,05,26,23,45,10.10
2007,05,26,23,46,10.10
2007,05,26,23,47,10.10
2007,05,26,23,48,10.00
2007,05,26,23,49,10.00
2007,05,26,23,50,10.00
2007,05,26,23,51,10.00
2007,05,26,23,52,10.00
2007,05,26,23,53,10.00
2007,05,26,23,54,9.90
2007,05,26,23,55,9.90
2007,05,26,23,56,9.90
2007,05,26,23,57,9.90
2007,05,26,23,58,9.90
2007,05,26,23,59,9.90
